This demonstration page uses our WeatherBlox Daily Observations layout. Learn more.

Left ArrowRight Arrow

41.12389, -100.76542

Hourly Observations for December 7, 2017

Temp ( °F °C ) Dew Point ( °F °C ) Humidity (%) Winds ( mph kmh ) Pressure ( in mb ) Visibility ( mi km ) Precip ( " mm )
12:53 am 00:53 Clear 9 -12.8 4 -15.6 80 80 NW 12 19 30.60 1036 10 16 0.00 0.00
2:53 am 02:53 Clear 6 -14.4 2 -16.7 83 83 WNW 3 6 30.59 1036 10 16 0.00 0.00
3:53 am 03:53 Clear 5 -15 1 -17.2 83 83 NW 6 9 30.60 1036 10 16 0.00 0.00
4:53 am 04:53 Clear 4 -15.6 0 -17.8 83 83 WNW 5 7 30.59 1036 10 16 0.00 0.00
5:53 am 05:53 Clear 5 -15 1 -17.2 83 83 W 6 9 30.59 1036 10 16 0.00 0.00
6:53 am 06:53 Clear 4 -15.6 0 -17.8 83 83 W 3 6 30.58 1036 10 16 0.00 0.00
7:53 am 07:53 Clear 3 -16.1 -1 -18.3 83 83 NW 3 6 30.58 1036 10 16 0.00 0.00
8:53 am 08:53 Sunny 9 -12.8 5 -15 84 84 NW 6 9 30.58 1036 10 16 0.00 0.00
9:23 am 09:23 Cloudy 11 -11.7 7 -13.9 84 84 NW 7 11 30.68 1039 10 16 0.00 0.00
9:43 am 09:43 Partly Cloudy 14 -10 10 -12.2 84 84 WNW 6 9 30.65 1038 10 16 0.00 0.00
9:53 am 09:53 Sunny 17 -8.3 12 -11.1 80 80 WNW 10 17 30.56 1035 10 16 0.00 0.00
10:53 am 10:53 Sunny 22 -5.6 14 -10 71 71 WNW 9 15 30.53 1034 10 16 0.00 0.00
11:53 am 11:53 Sunny 27 -2.8 14 -10 58 58 WNW 13 20 30.48 1032 10 16 0.00 0.00
12:53 pm 12:53 Sunny 29 -1.7 15 -9.4 56 56 W 9 15 30.44 1031 10 16 0.00 0.00
1:53 pm 13:53 Sunny 32 0 15 -9.4 50 50 WNW 10 17 30.39 1029 10 16 0.00 0.00
2:53 pm 14:53 Sunny 34 1.1 17 -8.3 50 50 W 10 17 30.36 1028 10 16 0.00 0.00
3:53 pm 15:53 Sunny 35 1.7 17 -8.3 48 48 SW 8 13 30.33 1027 10 16 0.00 0.00
4:53 pm 16:53 Mostly Sunny 32 0 16 -8.9 52 52 WNW 5 7 30.31 1026 10 16 0.00 0.00
5:53 pm 17:53 Mostly Cloudy 29 -1.7 18 -7.8 63 63 SW 6 9 30.30 1026 10 16 0.00 0.00
6:53 pm 18:53 Clear 26 -3.3 17 -8.3 69 69 Calm 30.28 1025 10 16 0.00 0.00
7:53 pm 19:53 Clear 24 -4.4 16 -8.9 71 71 Calm 30.27 1025 10 16 0.00 0.00
8:53 pm 20:53 Clear 21 -6.1 15 -9.4 78 78 WNW 5 7 30.24 1024 10 16 0.00 0.00
9:53 pm 21:53 Partly Cloudy 24 -4.4 18 -7.8 77 77 WNW 6 9 30.21 1023 10 16 0.00 0.00
10:53 pm 22:53 Cloudy 29 -1.7 21 -6.1 72 72 W 5 7 30.17 1022 10 16 0.00 0.00
11:53 pm 23:53 Cloudy 28 -2.2 21 -6.1 75 75 NW 5 7 30.15 1021 10 16 0.00 0.00

Powered by AerisWeather